Regional Weather Roundup
Issued by NWS

Home | Current Version | Previous Version | Graphics & Text | Print | Product List | Glossary On
Versions: 1 2 3 4 5 6 7 8 9 10 11 12 13 14 15 16 17 18 19 20 21 22 23 24 25 26 27 28 29 30 31 32 33 34 35 36 37 38 39 40 41 42 43 44 45 46 47 48 49 50
000
ASUS43 KBIS 221602
RWRND

NORTH DAKOTA REGIONAL WEATHER ROUNDUP
NATIONAL WEATHER SERVICE BISMARCK ND
1100 AM CDT SUN OCT 22 2017

NOTE: "FAIR" INDICATES FEW OR NO CLOUDS BELOW 12,000 FEET WITH NO
SIGNIFICANT WEATHER AND/OR OBSTRUCTIONS TO VISIBILITY.


NDZ001>003-009>011-017-221700-
NORTHWEST NORTH DAKOTA

CITY           SKY/WX    TMP DP  RH WIND       PRES   REMARKS
WILLISTON      CLOUDY    40  27  59 SW7       29.70F
MINOT          SUNNY     49  29  46 S13       29.71F
MINOT AFB      MOSUNNY   49  27  42 SW13      29.69F
$$

NDZ018>021-031>035-040>046-221700-
SOUTHWEST NORTH DAKOTA

CITY           SKY/WX    TMP DP  RH WIND       PRES   REMARKS
BISMARCK       SUNNY     50  27  40 SW7       29.84F
DICKINSON      CLOUDY    50  21  32 SW20G28   29.76S
GARRISON         N/A     47  28  47 SW14      29.76F
HETTINGER ARPT PTSUNNY   50  20  30 SW16      29.85F
$$

NDZ004>008-012>016-024-026-027-054-221700-
NORTHEAST NORTH DAKOTA

CITY           SKY/WX    TMP DP  RH WIND       PRES   REMARKS
GRAND FORKS    SUNNY     53  34  48 SW12      29.82F
GRND FRKS AFB  SUNNY     53  31  43 W12       29.82S
DEVILS LAKE    SUNNY     46  33  60 SW14      29.79F
$$

NDZ022-023-025-028>030-036>039-047>053-221700-
SOUTHEAST NORTH DAKOTA

CITY           SKY/WX    TMP DP  RH WIND       PRES   REMARKS
FARGO          SUNNY     50  34  54 SW13      29.89S
JAMESTOWN      SUNNY     52  30  43 SW10      29.85F
$$





USA.gov is the U.S. government's official web portal to all federal, state and local government web resources and services.